Weather History for Mackinac Island, MI

Change the Weather History Date:

Wednesday, May 15, 2013

  Actual Average Record
Temperature  
Mean Temperature 52 °F -  
Max Temperature 65 °F 54 °F 75 °F (1991)
Min Temperature 39 °F 39 °F 29 °F (1984)
Degree Days  
Heating Degree Days 13    
Growing Degree Days 2 (Base 50)    
Moisture  
Dew Point 41 °F    
Average Humidity 66    
Maximum Humidity 95    
Minimum Humidity 35    
Precipitation  
Precipitation 0.00 in - - ()
Sea Level Pressure  
Sea Level Pressure 29.62 in    
Wind  
Wind Speed 12 mph (West)    
Max Wind Speed 26 mph    
Max Gust Speed 32 mph    
Visibility 8 miles    
Events      
Averages and records for this station are not official NWS values.
T = Trace of Precipitation, MM = Missing Value Source: NWS Daily Summary

Daily Weather History Graph

Daily Weather History Graph

Search for Another Location

Airport:

Trip Planner

Search our weather history database for the weather conditions in past years. The results will help you decide how hot, cold, wet, or windy it might be!

Date:

Astronomy

May. 15, 2013 Rise Set
Actual Time 6:06 AM EDT 9:03 PM EDT
Civil Twilight 5:31 AM EDT 9:39 PM EDT
Nautical Twilight 4:46 AM EDT 10:24 PM EDT
Astronomical Twilight 3:53 AM EDT 11:18 PM EDT
Moon 10:44 AM EDT (5/15) 12:47 AM EDT (5/15)
Length of Visible Light 16h 07m
Length of Day
14h 57m
Waxing Crescent, 26% of the Moon is Illuminated
May 15
Waxing Crescent
May 18
First Quarter
May 25
Full
May 31
Last Quarter
Jun 8
New

Hourly Weather History & Observations

Time (EDT) Temp. Windchill Dew Point Humidity Pressure Visibility Wind Dir Wind Speed Gust Speed Precip Events Conditions
12:14 AM 43.3 °F 37.2 °F 40.1 °F 88% 29.63 in 7.0 mi East 11.5 mph 20.7 mph N/A   Mostly Cloudy
12:35 AM 43.2 °F 36.6 °F 40.3 °F 90% 29.61 in 7.0 mi ESE 12.7 mph 18.4 mph N/A   Overcast
12:55 AM 43.3 °F 36.8 °F 40.1 °F 88% 29.60 in 7.0 mi East 12.7 mph 19.6 mph N/A   Mostly Cloudy
1:14 AM 43.3 °F 37.7 °F 40.1 °F 88% 29.59 in 7.0 mi East 10.4 mph 16.1 mph N/A   Scattered Clouds
1:35 AM 43.2 °F 36.6 °F 40.1 °F 89% 29.58 in 7.0 mi ESE 12.7 mph 20.7 mph N/A   Scattered Clouds
1:55 AM 42.8 °F 36.2 °F 39.6 °F 88% 29.56 in 7.0 mi ESE 12.7 mph 20.7 mph N/A   Clear
2:14 AM 41.9 °F 35.4 °F 39.2 °F 90% 29.54 in 5.0 mi East 11.5 mph 23.0 mph N/A   Scattered Clouds
2:35 AM 41.4 °F 34.0 °F 39.2 °F 92% 29.51 in 4.0 mi East 13.8 mph 21.9 mph N/A   Clear
2:55 AM 41.0 °F 32.8 °F 39.0 °F 93% 29.50 in 4.0 mi East 16.1 mph 24.2 mph N/A   Scattered Clouds
3:14 AM 41.0 °F 34.3 °F 39.2 °F 93% 29.48 in 4.0 mi East 11.5 mph 25.3 mph N/A   Scattered Clouds
3:35 AM 40.6 °F 33.0 °F 38.8 °F 93% 29.47 in 3.0 mi East 13.8 mph 21.9 mph N/A   Mostly Cloudy
3:55 AM 41.0 °F 34.3 °F 39.2 °F 93% 29.47 in 3.0 mi East 11.5 mph 21.9 mph N/A   Overcast
4:14 AM 41.0 °F 35.8 °F 39.2 °F 93% 29.47 in 3.0 mi East 8.1 mph 17.3 mph N/A   Mostly Cloudy
4:35 AM 41.0 °F 35.2 °F 39.2 °F 93% 29.47 in 2.5 mi East 9.2 mph - N/A   Scattered Clouds
4:55 AM 40.5 °F 35.1 °F 38.8 °F 94% 29.47 in 2.0 mi ENE 8.1 mph - N/A   Overcast
5:14 AM 40.1 °F 34.7 °F 38.5 °F 94% 29.47 in 2.0 mi East 8.1 mph - N/A   Overcast
5:35 AM 40.1 °F 36.9 °F 38.3 °F 93% 29.47 in 1.8 mi ENE 4.6 mph - N/A   Overcast
5:55 AM 40.1 °F 36.9 °F 38.3 °F 93% 29.47 in 1.8 mi ENE 4.6 mph - N/A   Mostly Cloudy
6:14 AM 39.6 °F 35.4 °F 38.1 °F 95% 29.49 in 1.0 mi NE 5.8 mph - N/A   Mist
6:35 AM 40.1 °F 36.1 °F 38.5 °F 94% 29.50 in 1.0 mi NE 5.8 mph - N/A   Mist
6:55 AM 40.1 °F 35.3 °F 38.7 °F 95% 29.51 in 1.0 mi NNE 6.9 mph - N/A   Mist
7:14 AM 41.4 °F 37.6 °F 39.9 °F 95% 29.52 in 1.8 mi North 5.8 mph - N/A   Mist
7:35 AM 42.8 °F 39.3 °F 41.2 °F 94% 29.53 in 3.0 mi NW 5.8 mph - N/A   Clear
7:55 AM 43.9 °F 39.9 °F 41.5 °F 91% 29.54 in 4.0 mi West 6.9 mph - N/A   Clear
8:14 AM 45.7 °F 40.2 °F 42.4 °F 88% 29.55 in 5.0 mi West 11.5 mph - N/A   Clear
8:35 AM 49.1 °F - 43.5 °F 81% 29.56 in 10.0 mi West 12.7 mph - N/A   Clear
8:54 AM 51.8 °F - 43.9 °F 74% 29.57 in 10.0 mi WNW 10.4 mph 18.4 mph N/A   Clear
9:14 AM 54.5 °F - 45.5 °F 72% 29.57 in 10.0 mi NW 15.0 mph 24.2 mph N/A   Mostly Cloudy
9:35 AM 55.8 °F - 45.3 °F 68% 29.58 in 10.0 mi NW 17.3 mph 27.6 mph N/A   Scattered Clouds
9:55 AM 56.5 °F - 45.3 °F 66% 29.59 in 10.0 mi NW 12.7 mph 25.3 mph N/A   Mostly Cloudy
10:14 AM 57.2 °F - 45.1 °F 64% 29.59 in 10.0 mi NW 13.8 mph 24.2 mph N/A   Scattered Clouds
10:35 AM 59.0 °F - 45.3 °F 60% 29.60 in 10.0 mi NW 13.8 mph 23.0 mph N/A   Clear
10:55 AM 60.1 °F - 45.5 °F 59% 29.61 in 10.0 mi NW 16.1 mph 25.3 mph N/A   Clear
11:14 AM 61.0 °F - 45.5 °F 57% 29.63 in 10.0 mi NW 12.7 mph 24.2 mph N/A   Clear
11:35 AM 62.4 °F - 45.7 °F 54% 29.63 in 10.0 mi NW 12.7 mph 17.3 mph N/A   Clear
11:54 AM 62.6 °F - 45.3 °F 53% 29.64 in 10.0 mi WNW 12.7 mph 20.7 mph N/A   Clear
12:15 PM 64.4 °F - 45.0 °F 49% 29.65 in 10.0 mi West 12.7 mph 23.0 mph N/A   Clear
12:35 PM 63.1 °F - 45.1 °F 52% 29.65 in 10.0 mi West 20.7 mph 26.5 mph N/A   Clear
12:54 PM 63.7 °F - 43.5 °F 48% 29.66 in 10.0 mi West 26.5 mph 32.2 mph N/A   Clear
1:15 PM 63.9 °F - 43.3 °F 47% 29.66 in 10.0 mi WSW 16.1 mph 32.2 mph N/A   Clear
1:35 PM 60.8 °F - 44.1 °F 54% 29.67 in 10.0 mi WSW 16.1 mph 25.3 mph N/A   Clear
1:54 PM 60.3 °F - 43.9 °F 55% 29.67 in 10.0 mi WSW 10.4 mph 20.7 mph N/A   Clear
2:15 PM 61.0 °F - 43.3 °F 52% 29.68 in 10.0 mi WSW 12.7 mph 21.9 mph N/A   Clear
2:34 PM 61.3 °F - 43.3 °F 52% 29.68 in 10.0 mi WSW 11.5 mph 21.9 mph N/A   Clear
3:15 PM 65.5 °F - 39.9 °F 39% 29.67 in 10.0 mi West 18.4 mph 25.3 mph N/A   Clear
3:34 PM 65.3 °F - 38.3 °F 37% 29.67 in 10.0 mi West 16.1 mph 27.6 mph N/A   Clear
3:55 PM 62.8 °F - 39.6 °F 42% 29.68 in 10.0 mi WSW 16.1 mph 25.3 mph N/A   Clear
4:14 PM 62.8 °F - 39.0 °F 42% 29.68 in 10.0 mi West 11.5 mph 20.7 mph N/A   Clear
4:34 PM 64.4 °F - 41.0 °F 42% 29.68 in 10.0 mi WSW 13.8 mph 20.7 mph N/A   Clear
4:55 PM 64.0 °F - 41.2 °F 43% 29.68 in 10.0 mi WSW 16.1 mph 23.0 mph N/A   Clear
5:14 PM 63.7 °F - 41.9 °F 45% 29.69 in 10.0 mi WSW 16.1 mph 24.2 mph N/A   Clear
5:34 PM 61.5 °F - 43.2 °F 51% 29.69 in 10.0 mi WSW 16.1 mph 26.5 mph N/A   Clear
5:55 PM 61.0 °F - 43.2 °F 52% 29.70 in 10.0 mi WSW 13.8 mph 24.2 mph N/A   Clear
6:14 PM 61.0 °F - 41.9 °F 49% 29.70 in 10.0 mi WSW 17.3 mph 24.2 mph N/A   Clear
6:34 PM 61.7 °F - 41.2 °F 47% 29.70 in 10.0 mi WSW 10.4 mph - N/A   Clear
6:55 PM 62.1 °F - 39.9 °F 44% 29.71 in 10.0 mi WSW 9.2 mph 17.3 mph N/A   Clear
7:14 PM 62.1 °F - 37.4 °F 40% 29.71 in 10.0 mi West 11.5 mph 16.1 mph N/A   Clear
7:34 PM 62.2 °F - 36.9 °F 39% 29.71 in 10.0 mi West 9.2 mph - N/A   Clear
7:55 PM 63.7 °F - 35.8 °F 35% 29.71 in 10.0 mi West 12.7 mph 16.1 mph N/A   Clear
8:14 PM 60.4 °F - 37.6 °F 43% 29.72 in 10.0 mi WSW 8.1 mph 21.9 mph N/A   Clear
8:34 PM 56.5 °F - 38.7 °F 51% 29.72 in 10.0 mi WSW 9.2 mph - N/A   Clear
8:55 PM 55.9 °F - 38.3 °F 52% 29.72 in 10.0 mi WSW 10.4 mph - N/A   Clear
9:14 PM 55.2 °F - 38.7 °F 54% 29.73 in 10.0 mi WSW 8.1 mph 16.1 mph N/A   Clear
9:35 PM 54.9 °F - 38.5 °F 54% 29.73 in 10.0 mi WSW 13.8 mph 18.4 mph N/A   Clear
9:54 PM 55.2 °F - 38.3 °F 53% 29.73 in 10.0 mi WSW 8.1 mph 17.3 mph N/A   Clear
10:14 PM 53.6 °F - 39.2 °F 58% 29.74 in 10.0 mi WSW 12.7 mph 16.1 mph N/A   Clear
10:35 PM 53.1 °F - 39.2 °F 59% 29.73 in 10.0 mi SW 9.2 mph 18.4 mph N/A   Clear
10:54 PM 53.6 °F - 38.5 °F 57% 29.73 in 10.0 mi WSW 11.5 mph 17.3 mph N/A   Clear
11:15 PM 53.8 °F - 38.7 °F 57% 29.72 in 10.0 mi WSW 12.7 mph 19.6 mph N/A   Clear
11:35 PM 53.6 °F - 38.8 °F 57% 29.72 in 10.0 mi WSW 12.7 mph 18.4 mph N/A   Clear
11:54 PM 52.3 °F - 39.2 °F 61% 29.72 in 10.0 mi WSW 11.5 mph 16.1 mph N/A   Clear